Satellite: CO-58
Catalog number: 28895
Epoch time:      07249.70100666
Element set:     819
Inclination:      098.1208 deg
RA of node:       144.9285 deg
Eccentricity:    0.0017070
Arg of perigee:   215.8017 deg
Mean anomaly:     144.2044 deg
Mean motion:   14.59581020 rev/day
Decay rate:        4.3e-07 rev/day^2
Epoch rev:            9898
Checksum:              317

Satellite: NCUBE2
Catalog number: 28897
Epoch time:      07248.66996557
Element set:    0347
Inclination:      098.1205 deg
RA of node:       143.8688 deg
Eccentricity:    0.0016200
Arg of perigee:   221.1643 deg
Mean anomaly:     138.8331 deg
Mean motion:   14.59745281 rev/day
Decay rate:       1.11e-06 rev/day^2
Epoch rev:           09111
Checksum:              312

Satellite: NMARS
Catalog number: 29662
Epoch time:      07126.39603970
Element set:     263
Inclination:      051.6121 deg
RA of node:       302.3682 deg
Eccentricity:    0.0004459
Arg of perigee:   252.1654 deg
Mean anomaly:     110.7411 deg
Mean motion:   16.47981436 rev/day
Decay rate:   7.031946e-02 rev/day^2
Epoch rev:            2165
Checksum:              289

Satellite: FCAL
Catalog number: 29667
Epoch time:      07249.80380785
Element set:     305
Inclination:      051.6345 deg
RA of node:       025.3894 deg
Eccentricity:    0.0012254
Arg of perigee:   306.8651 deg
Mean anomaly:     053.1232 deg
Mean motion:   15.91004060 rev/day
Decay rate:     1.5896e-04 rev/day^2
Epoch rev:            4098
Checksum:              296

Satellite: FALCON
Catalog number: 30776
Epoch time:      07249.84108579
Element set:     134
Inclination:      035.4343 deg
RA of node:       077.6506 deg
Eccentricity:    0.0001029
Arg of perigee:   034.6139 deg
Mean anomaly:     325.4645 deg
Mean motion:   15.02760013 rev/day
Decay rate:       2.79e-06 rev/day^2
Epoch rev:            2734
Checksum:              283

Satellite: MAST
Catalog number: 31126
Epoch time:      07249.63546002
Element set:     126
Inclination:      098.0772 deg
RA of node:       319.8849 deg
Eccentricity:    0.0095605
Arg of perigee:   133.0568 deg
Mean anomaly:     227.8691 deg
Mean motion:   14.53362679 rev/day
Decay rate:       3.44e-06 rev/day^2
Epoch rev:            2068
Checksum:              313

Satellite: CAPE1
Catalog number: 31130
Epoch time:      07249.64309022
Element set:     110
Inclination:      098.0735 deg
RA of node:       319.5543 deg
Eccentricity:    0.0103752
Arg of perigee:   133.9335 deg
Mean anomaly:     227.0415 deg
Mean motion:   14.51881015 rev/day
Decay rate:      -2.34e-06 rev/day^2
Epoch rev:            2043
Checksum:              249

/EX






More information about the Keps mailing list